Showing default

OPS 1427 (OV3-4), 2201

Orbit data source: Space-Track

OPS 1427 (OV3-4), 2201 is a payload satellite owned by USAF OAR (US) in LEO that was launched on Fri, 10 Jun 1966 UTC via an SCOUT B launch vehicle from the Wallops Island (WLPIS). Payloads include a variety of satellites, spacecraft, and rockets equipped with specific instruments for various scientific and technological missions. These include communications satellites like Starlink; space stations such as the ISS; scientific satellites like the Hubble; Earth observation satellites from companies like Planet Labs, Umbra, and HawkEye 360; GPS; miniature CubeSats for education and research; and military/defense satellites.

Loading next visibility...
OPS 1427 (OV3-4) details
Identifier
2201, 1966-052A
Orbit
LEO
Last TLE update10 hours ago
Origin
Flag of USUSAF OAR (US)
ManufacturerSpace General
MissionDefense Technology
Bus & MotorOV3, Unknown motor
Mass78 kg wet, 78 kg dry
Launch date (UTC)
1966-06-10 (59 years ago)
Launch vehicle
SCOUT B
Launch site
Wallops Island (WLPIS)
Object type
Payload
Rocket body
Debris
Shape & HBROct Cyl, 0.7 m
Radar Cross Section0.548 m², Medium (>0.1 m² and < 1m²)

Expand to show TLE details & history

TLE from 10 hours ago
0 OPS 1427 (OV3-4)
1 02201U 66052A   24356.83370358  .00000005  00000-0  29057-4 0  9993
2 02201  40.8940 175.5425 2235613 235.0525 101.9556 10.09946871142497
Epoch: 2024-12-21T20:00Z
Definitive object data (Epoch: 2024-12-21T20:00:31.989Z)
Latitude-0°
Longitude144.53003°
Altitude3,473.867 km
Speed6.07 km/s
True Right ascension11h 42m 10s
True Declination0° 00' 00"
Sunlit
Object was in daylight at TLE epoch
Visualization TLE readout
Latitude40.53903°
Longitude-136.76723°
Altitude4,375.603 km
Speed5.486 km/s
Apparent Right ascension17h 06m 19s
Apparent Declination12° 30' 23"
Sunlit
Object is in daylight
Visualization observer readout
Local Sidereal Time05:21:56
Azimuth4.804° NNE
Elevation-37.452°
Doppler factor1
Orbital elements
Apogee altitude4,686.039 km
Perigee altitude642.888 km
Semi-major axis9,042.601 km
Eccentricity0.2235613
Inclination40.894°
RAAN175.5425°
Arg. of periapsis235.0525°
True anomaly125.01233°
Mean anomaly101.9556°
Eccentric anomaly113.68571°
Mean motion2.52408 °/min
BSTAR0.000029057
Orbital period142.63 mins
Loading maneuver chart data...
Loading historical data...
Loading historical data...
Loading historical data...
Loading historical data...
Loading historical data...
Loading historical data...
Loading historical data...
Other satellites on launch #52 in the year 1966 (1966-06-10 UTC)

OPS 1427 (OV3-4) Visibility forecast

Observer location: undefined°, undefined

Span
Click to sort rows by Start time (UTC) header in descending order
Start Az.
Max El. time (UTC)
Max El. Az.
Max El.
End time (UTC)
End Az.
42 mins2024-12-22 12:38:13.038Z181.888° SSW2024-12-22 12:57:13.038Z124.916° SE30.728°2024-12-22 13:20:13.038Z71.429° E
51 mins2024-12-22 15:07:13.038Z227.921° WSW2024-12-22 15:32:13.038Z151.75° SSE43.804°2024-12-22 15:58:13.038Z72.115° E
49 mins2024-12-22 17:43:13.038Z263.482° W2024-12-22 18:12:13.038Z4.254° NNE44.974°2024-12-22 18:32:13.038Z89.577° E
39 mins2024-12-22 20:24:13.038Z286.018° WNW2024-12-22 20:50:13.038Z198.512° SSW44.223°2024-12-22 21:03:13.038Z124.553° SE
24 mins2024-12-22 23:06:13.038Z286.592° WNW2024-12-22 23:21:13.038Z236.057° WSW27.851°2024-12-22 23:30:13.038Z181.14° SSW
|